CW9585 Weather Reports


time (UTC)temp
C
wind
direction
speed
KPH
gust
KPH
rain 1hr
cm
rain 24hr
cm
rain mn
cm
humidity
%
barometer
mb
20260902054705 15 44 0.0 0.0 0.00 0.00 0.00 78 1017.8
20260902054205 15 45 0.0 0.0 0.00 0.00 0.00 78 1017.8
20260902053704 15 43 0.0 0.0 0.00 0.00 0.00 78 1018.0
20260902053205 15 43 0.0 0.0 0.00 0.00 0.00 78 1017.9
20260902052704 15 46 0.0 0.0 0.00 0.00 0.00 78 1018.0
20260902052205 15 53 0.0 0.0 0.00 0.00 0.00 78 1018.0
20260902051704 16 53 0.0 0.0 0.00 0.00 0.00 78 1018.0
20260902050704 16 53 0.0 3.2 0.00 0.00 0.00 78 1017.9
20260902045705 16 53 0.0 4.8 0.00 0.00 0.00 78 1017.9
20260902045204 16 53 0.0 3.2 0.00 0.00 0.00 78 1017.9
20260902044705 16 28 0.0 0.0 0.00 0.00 0.00 77 1017.9
20260902044204 16 21 0.0 3.2 0.00 0.00 0.00 77 1017.9
20260902043704 16 44 0.0 3.2 0.00 0.00 0.00 77 1017.9
20260902043204 16 44 0.0 4.8 0.00 0.00 0.00 77 1017.9
20260902042704 16 26 0.0 4.8 0.00 0.00 0.00 77 1017.8
20260902042205 16 26 0.0 4.8 0.00 0.00 0.00 77 1017.8
20260902041704 16 26 0.0 0.0 0.00 0.00 0.00 78 1017.8
20260902041204 16 274 0.0 0.0 0.00 0.00 0.00 78 1017.8
20260902040704 16 274 0.0 4.8 0.00 0.00 0.00 78 1017.7
20260902040204 16 274 0.0 4.8 0.00 0.00 0.00 78 1017.6
20260902035204 16 274 3.2 8.0 0.00 0.00 0.00 78 1017.4
20260902034704 16 254 3.2 8.0 0.00 0.00 0.00 78 1017.4
20260902034204 17 249 3.2 8.0 0.00 0.00 0.00 78 1017.3
20260902033704 17 235 1.6 8.0 0.00 0.00 0.00 78 1017.2
20260902033204 17 248 1.6 8.0 0.00 0.00 0.00 78 1017.2
20260902032705 17 249 3.2 8.0 0.00 0.00 0.00 78 1017.2
20260902032205 17 221 3.2 8.0 0.00 0.00 0.00 78 1017.1
20260902031704 17 250 3.2 8.0 0.00 0.00 0.00 78 1017.1
20260902031205 17 248 4.8 9.7 0.00 0.00 0.00 78 1017.1
20260902030704 17 259 4.8 11.3 0.00 0.00 0.00 78 1017.1
20260902030204 17 251 4.8 11.3 0.00 0.00 0.00 77 1016.9
20260902025204 17 254 4.8 11.3 0.00 0.00 0.00 77 1016.9
20260902024704 17 236 4.8 11.3 0.00 0.00 0.00 77 1016.9
20260902024204 17 245 4.8 16.1 0.00 0.00 0.00 77 1016.8
20260902023704 17 273 6.4 17.7 0.00 0.00 0.00 76 1016.7
20260902023204 18 247 8.0 17.7 0.00 0.00 0.00 76 1016.7
20260902022705 18 234 8.0 17.7 0.00 0.00 0.00 76 1016.8
20260902021704 18 229 9.7 19.3 0.00 0.00 0.00 75 1016.6
20260902021204 18 255 11.3 19.3 0.00 0.00 0.00 74 1016.6
20260902020704 18 238 11.3 19.3 0.00 0.00 0.00 73 1016.7
20260902020205 18 234 11.3 17.7 0.00 0.00 0.00 72 1016.6
20260902015704 18 274 9.7 17.7 0.00 0.00 0.00 71 1016.5
20260902014204 19 263 11.3 20.9 0.00 0.00 0.00 72 1016.5
20260902013204 19 279 11.3 24.1 0.00 0.00 0.00 73 1016.5
20260902012705 19 221 11.3 24.1 0.00 0.00 0.00 73 1016.5
20260902012205 19 215 9.7 22.5 0.00 0.00 0.00 74 1016.5
20260902011705 19 280 9.7 22.5 0.00 0.00 0.00 75 1016.5
20260902011205 19 221 11.3 22.5 0.00 0.00 0.00 75 1016.4
20260902010705 19 236 9.7 22.5 0.00 0.00 0.00 75 1016.4
20260902005704 19 254 11.3 27.4 0.00 0.00 0.00 74 1016.3
20260902004704 20 194 9.7 27.4 0.00 0.00 0.00 73 1016.4
20260902004205 20 244 11.3 22.5 0.00 0.00 0.00 73 1016.4
20260902003704 20 224 11.3 22.5 0.00 0.00 0.00 74 1016.4
20260902003205 20 287 9.7 29.0 0.00 0.00 0.00 74 1016.4
20260902002704 20 171 11.3 29.0 0.00 0.00 0.00 74 1016.4
20260902002204 20 232 11.3 29.0 0.00 0.00 0.00 74 1016.4
20260902001705 20 201 11.3 22.5 0.00 0.00 0.00 74 1016.4
20260902000205 20 254 9.7 22.5 0.00 0.00 0.00 76 1016.4
20260901235704 20 265 11.3 22.5 0.00 0.00 0.00 76 1016.4
20260901235205 20 184 11.3 25.7 0.00 0.00 0.00 76 1016.4
20260901234705 20 270 9.7 25.7 0.00 0.00 0.00 77 1016.5
20260901234205 19 173 11.3 27.4 0.00 0.00 0.00 78 1016.5
20260901233704 19 214 11.3 27.4 0.00 0.00 0.00 78 1016.5
20260901233204 19 210 11.3 27.4 0.00 0.00 0.00 78 1016.6
20260901232705 20 178 11.3 24.1 0.00 0.00 0.00 77 1016.7
20260901232204 19 253 11.3 24.1 0.00 0.00 0.00 78 1016.7
20260901231704 19 204 12.9 25.7 0.00 0.00 0.00 79 1016.7
20260901231204 19 212 12.9 25.7 0.00 0.00 0.00 79 1016.8
20260901230705 19 266 11.3 25.7 0.00 0.00 0.00 79 1016.7
20260901230205 19 225 14.5 25.7 0.00 0.00 0.00 79 1016.9
20260901225705 19 176 14.5 27.4 0.00 0.00 0.00 79 1016.8
20260901225204 19 188 12.9 27.4 0.00 0.00 0.00 79 1016.8
20260901224704 19 193 14.5 27.4 0.00 0.00 0.00 79 1016.9
20260901224204 19 224 12.9 27.4 0.00 0.00 0.00 78 1016.8
20260901223204 18 202 14.5 27.4 0.00 0.00 0.00 80 1016.9
20260901222704 18 207 16.1 25.7 0.00 0.00 0.00 81 1017.0
20260901222204 18 243 14.5 27.4 0.00 0.00 0.00 81 1017.0
20260901221204 18 217 14.5 27.4 0.00 0.00 0.00 79 1017.0
20260901220704 18 187 14.5 24.1 0.00 0.00 0.00 78 1017.1
20260901215704 19 217 12.9 27.4 0.00 0.00 0.00 78 1017.2
20260901215204 19 201 11.3 27.4 0.00 0.00 0.00 77 1017.2
20260901214704 19 254 9.7 25.7 0.00 0.00 0.00 77 1017.2
20260901214204 19 215 11.3 27.4 0.00 0.00 0.00 78 1017.2
20260901213705 19 188 12.9 27.4 0.00 0.00 0.00 78 1017.2
20260901213204 18 225 12.9 24.1 0.00 0.00 0.00 77 1017.2
20260901212705 18 198 12.9 24.1 0.00 0.00 0.00 80 1017.2
20260901212204 18 190 12.9 25.7 0.00 0.00 0.00 80 1017.2
20260901211704 18 188 12.9 25.7 0.00 0.00 0.00 80 1017.2
20260901211204 18 192 12.9 22.5 0.00 0.00 0.00 81 1017.3
20260901210705 18 177 11.3 25.7 0.00 0.00 0.00 80 1017.3
20260901210204 18 171 12.9 25.7 0.00 0.00 0.00 81 1017.4
20260901205704 18 167 12.9 27.4 0.00 0.00 0.00 81 1017.4
20260901205204 18 219 12.9 27.4 0.00 0.00 0.00 81 1017.5
20260901204704 18 203 12.9 27.4 0.00 0.00 0.00 82 1017.4
20260901204205 18 193 12.9 22.5 0.00 0.00 0.00 83 1017.5
20260901203705 18 222 12.9 24.1 0.00 0.00 0.00 83 1017.5
20260901202704 18 206 11.3 27.4 0.00 0.00 0.00 82 1017.7
20260901201705 18 202 11.3 20.9 0.00 0.00 0.00 83 1017.6
20260901201204 18 236 12.9 24.1 0.00 0.00 0.00 83 1017.7
20260901200705 18 222 12.9 24.1 0.00 0.00 0.00 82 1017.8
20260901200204 18 188 12.9 24.1 0.00 0.00 0.00 82 1017.7
20260901195704 18 191 11.3 19.3 0.00 0.00 0.00 82 1017.7
20260901195204 18 265 9.7 16.1 0.00 0.00 0.00 82 1017.7
20260901194705 18 213 9.7 17.7 0.00 0.00 0.00 83 1017.7
20260901194204 17 270 8.0 17.7 0.00 0.00 0.00 83 1017.7
20260901193704 17 207 9.7 17.7 0.00 0.00 0.00 85 1017.9
20260901193205 17 223 9.7 17.7 0.00 0.00 0.00 85 1017.9
20260901192705 17 209 9.7 17.7 0.00 0.00 0.00 85 1017.9
20260901191704 17 244 9.7 16.1 0.00 0.00 0.00 84 1018.0
20260901190704 17 190 9.7 17.7 0.00 0.00 0.00 82 1017.9
20260901185705 18 174 8.0 16.1 0.00 0.00 0.00 81 1017.9
20260901185204 18 217 6.4 16.1 0.00 0.00 0.00 82 1017.9
20260901184704 18 223 8.0 16.1 0.00 0.00 0.00 81 1017.8
20260901184204 18 265 8.0 14.5 0.00 0.00 0.00 80 1017.9
20260901183704 18 232 8.0 14.5 0.00 0.00 0.00 79 1017.8
20260901183204 18 243 6.4 14.5 0.00 0.00 0.00 79 1017.9
20260901182705 18 215 8.0 14.5 0.00 0.00 0.00 79 1017.8
20260901180705 18 153 6.4 12.9 0.00 0.00 0.00 77 1017.6
20260901180204 18 184 6.4 12.9 0.00 0.00 0.00 78 1017.7
20260901175204 17 238 8.0 12.9 0.00 0.00 0.00 80 1017.7
20260901174204 17 182 8.0 14.5 0.00 0.00 0.00 79 1017.7
20260901173704 17 182 8.0 14.5 0.00 0.00 0.00 80 1017.8
20260901173204 17 142 8.0 11.3 0.00 0.00 0.00 79 1017.6
20260901172705 17 178 6.4 16.1 0.00 0.00 0.00 78 1017.6
20260901172205 17 156 6.4 16.1 0.00 0.00 0.00 78 1017.5
20260901171205 18 134 8.0 16.1 0.00 0.00 0.00 77 1017.5
20260901170705 18 155 9.7 12.9 0.00 0.00 0.00 73 1017.3
20260901170204 18 99 8.0 12.9 0.00 0.00 0.00 70 1017.3
20260901165205 18 67 6.4 11.3 0.00 0.00 0.00 73 1017.1
20260901164205 17 176 4.8 11.3 0.00 0.00 0.00 77 1017.2
20260901163704 17 150 3.2 11.3 0.00 0.00 0.00 78 1017.3
20260901163205 17 152 1.6 8.0 0.00 0.00 0.00 78 1017.3
20260901162704 17 183 3.2 8.0 0.00 0.00 0.00 78 1017.2
20260901162204 17 120 3.2 8.0 0.00 0.00 0.00 78 1017.3
20260901161704 17 211 0.0 1.6 0.00 0.00 0.00 78 1017.4
20260901161203 17 175 0.0 8.0 0.00 0.00 0.00 78 1017.4
20260901160705 16 175 1.6 8.0 0.00 0.00 0.00 77 1017.4
20260901160204 16 175 3.2 8.0 0.00 0.00 0.00 77 1017.3
20260901155204 16 119 1.6 4.8 0.00 0.00 0.00 77 1017.1
20260901154704 16 119 0.0 4.8 0.00 0.00 0.00 78 1017.0
20260901154204 16 138 0.0 4.8 0.00 0.00 0.00 79 1016.9
20260901153705 16 172 1.6 4.8 0.00 0.00 0.00 79 1016.7
20260901153204 16 120 1.6 3.2 0.00 0.00 0.00 80 1016.8
20260901152705 16 119 0.0 4.8 0.00 0.00 0.00 80 1016.8
20260901152204 16 120 0.0 6.4 0.00 0.00 0.00 80 1016.9
20260901151704 16 120 1.6 6.4 0.00 0.00 0.00 80 1016.9
20260901151204 16 119 1.6 6.4 0.00 0.00 0.00 79 1017.0
20260901150705 16 119 0.0 4.8 0.00 0.00 0.00 79 1017.0
20260901145704 16 190 1.6 6.4 0.00 0.00 0.00 80 1016.8
20260901144704 16 119 1.6 6.4 0.00 0.00 0.00 80 1016.6
20260901144204 16 123 0.0 0.0 0.00 0.00 0.00 80 1016.6
20260901143704 16 88 0.0 0.0 0.00 0.00 0.00 79 1016.5
20260901142705 16 88 0.0 0.0 0.00 0.00 0.00 79 1016.3
20260901142205 16 88 0.0 0.0 0.00 0.00 0.00 79 1016.3
20260901141704 16 88 0.0 0.0 0.00 0.00 0.00 79 1016.2
20260901141204 16 88 0.0 0.0 0.00 0.00 0.00 78 1016.2
20260901140204 16 111 0.0 0.0 0.00 0.00 0.00 78 1016.0
20260901135704 16 71 0.0 0.0 0.00 0.00 0.00 78 1015.8
20260901135204 16 71 0.0 0.0 0.00 0.00 0.00 77 1015.8
20260901134705 16 71 0.0 0.0 0.00 0.00 0.00 77 1015.8
20260901133704 16 234 0.0 0.0 0.00 0.00 0.00 77 1015.8
20260901132704 16 234 0.0 0.0 0.00 0.00 0.00 76 1015.7
20260901132205 16 234 0.0 0.0 0.00 0.00 0.00 76 1015.7
20260901130704 16 234 0.0 0.0 0.00 0.00 0.00 76 1015.7
20260901130204 15 234 0.0 0.0 0.00 0.00 0.00 75 1015.6
20260901125704 15 234 0.0 0.0 0.00 0.00 0.00 75 1015.5
20260901125204 15 234 0.0 0.0 0.00 0.00 0.00 75 1015.5
20260901124205 15 234 0.0 0.0 0.00 0.00 0.00 75 1015.4
20260901123705 15 234 0.0 0.0 0.00 0.00 0.00 74 1015.5
20260901122704 16 234 0.0 0.0 0.00 0.00 0.00 74 1015.5
20260901122205 15 234 0.0 0.0 0.00 0.00 0.00 74 1015.5
20260901121204 16 234 0.0 0.0 0.00 0.00 0.00 74 1015.5
20260901120705 16 234 0.0 0.0 0.00 0.00 0.00 74 1015.3
20260901120204 16 234 0.0 0.0 0.00 0.00 0.00 74 1015.3
20260901115705 16 234 0.0 0.0 0.00 0.00 0.00 74 1015.3
20260901115204 16 234 0.0 0.0 0.00 0.00 0.00 74 1015.3
20260901114704 16 234 0.0 0.0 0.00 0.00 0.00 74 1015.4
20260901114204 16 234 0.0 0.0 0.00 0.00 0.00 74 1015.4
20260901113704 16 234 0.0 0.0 0.00 0.00 0.00 74 1015.4
20260901113204 16 234 0.0 4.8 0.00 0.00 0.00 74 1015.5
20260901112705 16 234 0.0 4.8 0.00 0.00 0.00 74 1015.5
20260901111704 16 234 1.6 4.8 0.00 0.00 0.00 74 1015.6
20260901111205 16 234 1.6 4.8 0.00 0.00 0.00 74 1015.5
20260901110704 16 263 0.0 4.8 0.00 0.00 0.00 74 1015.3
20260901110205 16 318 0.0 6.4 0.00 0.00 0.00 74 1015.2
20260901105704 16 318 1.6 6.4 0.00 0.00 0.00 74 1015.4
20260901105204 16 318 0.0 6.4 0.00 0.00 0.00 74 1015.4
20260901104704 16 322 0.0 0.0 0.00 0.00 0.00 74 1015.3
20260901104205 16 35 0.0 1.6 0.00 0.00 0.00 74 1015.3
20260901103204 16 325 0.0 8.0 0.00 0.00 0.00 74 1015.3
20260901102204 16 242 3.2 8.0 0.00 0.00 0.00 74 1015.1
20260901101705 16 292 3.2 8.0 0.00 0.00 0.00 74 1015.2
20260901101205 16 286 3.2 8.0 0.00 0.00 0.00 74 1015.2
20260901100204 16 0 4.8 8.0 0.00 0.00 0.00 75 1015.4
20260901095705 16 293 3.2 8.0 0.00 0.00 0.00 75 1015.3
20260901095204 16 309 4.8 8.0 0.00 0.00 0.00 75 1015.3
20260901094705 16 283 4.8 8.0 0.00 0.00 0.00 75 1015.3
20260901094205 16 283 3.2 8.0 0.00 0.00 0.00 75 1015.2
20260901093204 16 285 1.6 4.8 0.00 0.00 0.00 76 1015.2
20260901092704 16 265 1.6 4.8 0.00 0.00 0.00 76 1015.1
20260901092204 16 292 1.6 4.8 0.00 0.00 0.00 76 1015.1
20260901091704 16 262 1.6 4.8 0.00 0.00 0.00 76 1015.0
20260901091205 16 262 0.0 0.0 0.00 0.00 0.00 76 1015.2
20260901090704 16 262 0.0 0.0 0.00 0.00 0.00 76 1015.2
20260901090204 16 262 0.0 0.0 0.00 0.00 0.00 76 1015.2
20260901085704 16 262 0.0 0.0 0.00 0.00 0.00 76 1015.1
20260901085204 16 262 0.0 0.0 0.00 0.00 0.00 76 1015.1
20260901084705 16 262 0.0 0.0 0.00 0.00 0.00 76 1015.1
20260901084205 16 282 0.0 0.0 0.00 0.00 0.00 76 1015.0
20260901083705 16 282 0.0 0.0 0.00 0.00 0.00 76 1015.0
20260901083204 16 282 0.0 0.0 0.00 0.00 0.00 76 1015.1
20260901082204 16 282 0.0 0.0 0.00 0.00 0.00 77 1015.1
20260901081704 16 282 0.0 0.0 0.00 0.00 0.00 77 1015.1
20260901081204 16 282 0.0 0.0 0.00 0.00 0.00 77 1015.1
20260901080705 16 282 0.0 3.2 0.00 0.00 0.00 77 1015.1
20260901075704 16 278 1.6 4.8 0.00 0.00 0.00 77 1015.1
20260901075205 16 289 1.6 4.8 0.00 0.00 0.00 77 1015.0
20260901074704 16 289 1.6 6.4 0.00 0.00 0.00 77 1015.1
20260901074205 16 285 1.6 6.4 0.00 0.00 0.00 77 1015.2
20260901073704 16 303 3.2 6.4 0.00 0.00 0.00 77 1015.2
20260901073204 16 333 3.2 8.0 0.00 0.00 0.00 78 1015.2
20260901072704 16 283 3.2 8.0 0.00 0.00 0.00 78 1015.2
20260901072204 16 320 3.2 8.0 0.00 0.00 0.00 78 1015.2
20260901071704 16 319 4.8 8.0 0.00 0.00 0.00 78 1015.1
20260901070705 16 306 3.2 8.0 0.00 0.00 0.00 78 1015.2
20260901070204 16 334 3.2 8.0 0.00 0.00 0.00 79 1015.1
20260901065704 16 261 3.2 11.3 0.00 0.00 0.00 79 1015.2
20260901065205 16 281 4.8 11.3 0.00 0.00 0.00 79 1015.2
20260901064704 16 288 3.2 8.0 0.00 0.00 0.00 80 1015.2
20260901064204 16 309 0.0 8.0 0.00 0.00 0.00 80 1015.2
20260901063704 16 306 1.6 8.0 0.00 0.00 0.00 81 1015.2
20260901062705 15 297 3.2 9.7 0.00 0.00 0.00 81 1015.2
20260901062204 15 295 4.8 9.7 0.00 0.00 0.00 82 1015.2
20260901061705 15 289 4.8 9.7 0.00 0.00 0.00 83 1015.2
20260901061205 15 275 3.2 6.4 0.00 0.00 0.00 84 1015.3
20260901060704 15 288 1.6 4.8 0.00 0.00 0.00 85 1015.3
20260901060205 15 245 1.6 4.8 0.00 0.00 0.00 85 1015.3
20260901055704 16 166 0.0 3.2 0.00 0.00 0.00 86 1015.2
20260901055204 16 166 0.0 4.8 0.00 0.00 0.00 86 1015.2